CW5834 Weather Reports


Display with metric or nautical units.
time (UTC)temp
F
wind
direction
speed
MPH
gust
MPH
rain 1hr
in
rain 24hr
in
rain mn
in
humidity
%
barometer
mb
20180721100022 63 117 8.0 21.0 0.12 2.00 0.89 43 1013.3
20180721095022 62 121 4.0 17.0 0.14 2.00 0.89 43 1015.5
20180721094022 62 106 0.0 9.0 0.15 1.99 0.88 43 1016.4
20180721093022 62 0.0 0.0 0.15 1.97 0.86 43 1017.6
20180721092022 62 0.0 0.0 0.13 1.92 0.82 43 1017.6
20180721091017 62 49 0.0 6.0 0.13 1.89 0.79 43 1017.0
20180721090022 62 0.0 0.0 0.16 1.88 0.78 43 1017.0
20180721085022 62 0.0 0.0 0.19 1.86 0.76 43 1017.4
20180721084022 62 0.0 0.0 0.20 1.83 0.74 43 1017.5
20180721083022 62 14 0.0 2.0 0.22 1.81 0.72 43 1017.5
20180721082022 62 337 0.0 5.0 0.28 1.79 0.70 43 1017.4
20180721081017 63 338 0.0 6.0 0.36 1.75 0.67 43 1018.3
20180721080021 63 338 1.0 7.0 0.67 1.71 0.63 43 1018.6
20180721075022 63 14 1.0 9.0 0.63 1.66 0.59 43 1018.3
20180721074022 63 0.0 6.0 0.59 1.63 0.56 43 1018.3
20180721073022 63 29 2.0 9.0 0.55 1.59 0.52 43 1018.4
20180721072022 63 310 3.0 9.0 0.47 1.51 0.45 43 1018.3
20180721071022 63 37 3.0 15.0 0.36 1.39 0.35 43 1017.9
20180721070017 63 340 3.0 12.0 0.00 1.03 0.03 43 1018.4
20180721065026 63 335 3.0 9.0 0.00 1.03 0.03 43 1017.1
20180721064022 63 356 1.0 7.0 0.00 1.03 0.03 43 1016.5
20180721063027 63 344 0.0 8.0 0.00 1.03 0.03 43 1016.3
20180721062022 63 0.0 4.0 0.00 1.03 0.03 43 1016.0
20180721061022 63 0.0 0.0 0.00 1.03 0.03 43 1016.2
20180721060016 63 58 0.0 4.0 0.01 1.03 0.03 43 1016.6
20180721055017 63 39 0.0 10.0 0.01 1.03 0.03 43 1017.0
20180721054037 63 318 1.0 5.0 0.02 1.03 0.03 43 1017.0
20180721053021 63 79 2.0 10.0 0.03 1.03 0.03 43 1016.9
20180721052022 64 326 2.0 9.0 0.03 1.03 0.03 43 1016.9
20180721051019 64 88 2.0 10.0 0.03 1.03 0.03 43 1017.4
20180721050021 64 80 1.0 11.0 0.02 1.02 0.02 43 1017.4
20180721045016 64 66 3.0 16.0 0.02 1.02 0.02 43 1017.2
20180721044021 64 109 3.0 13.0 0.01 1.01 0.01 43 1017.4
20180721043024 64 102 2.0 14.0 0.00 1.00 0.00 44 1018.1
20180721042021 64 0.0 0.0 0.01 1.00 0.00 44 1018.6
20180721041021 64 0.0 0.0 0.01 1.00 0.00 44 1017.9
20180721040021 64 0.0 0.0 0.02 1.00 0.89 45 1017.2
20180721035022 64 0.0 0.0 0.02 1.00 0.89 45 1016.8
20180721034022 64 175 0.0 4.0 0.09 1.00 0.89 46 1017.0
20180721033017 64 173 1.0 7.0 0.37 1.00 0.89 46 1017.4
20180721032022 64 0.0 0.0 0.65 0.99 0.88 46 1017.5
20180721031022 64 0.0 6.0 0.90 0.99 0.88 48 1018.0
20180721030022 64 318 4.0 7.0 0.98 0.98 0.87 51 1018.1
20180721025022 65 155 3.0 9.0 0.98 0.98 0.87 56 1017.7
20180721024022 66 313 2.0 18.0 0.91 0.91 0.81 63 1020.0
20180721023016 66 348 2.0 11.0 0.63 0.63 0.54 69 1021.5
20180721022017 68 5 4.0 12.0 0.33 0.33 0.30 75 1020.0
20180721021027 70 37 4.0 16.0 0.09 0.09 0.08 77 1018.8
20180721020022 74 11 4.0 14.0 0.00 0.00 0.00 71 1018.4
20180721015022 76 0.0 0.0 0.00 0.00 0.00 76 1017.5
20180721014020 76 183 0.0 3.0 0.00 0.00 0.00 76 1017.2
20180721013022 75 0.0 0.0 0.00 0.00 0.00 76 1016.8
20180721012016 75 0.0 0.0 0.00 0.00 0.00 76 1016.2
20180721011022 75 0.0 0.0 0.00 0.00 0.00 76 1015.6
20180721010021 76 0.0 0.0 0.00 0.00 0.00 76 1015.4
20180721005022 76 0.0 0.0 0.00 0.00 0.00 75 1015.5
20180721004022 77 0.0 0.0 0.00 0.00 0.00 74 1015.4
20180721003021 78 0.0 0.0 0.00 0.00 0.00 73 1015.2
20180721002017 79 0.0 0.0 0.00 0.00 0.00 71 1015.0
20180721001016 80 188 0.0 4.0 0.00 0.00 0.00 69 1015.1
20180721000022 81 182 1.0 7.0 0.00 0.00 0.00 67 1015.0
20180720235021 82 178 0.0 6.0 0.00 0.00 0.00 67 1015.2
20180720234022 82 177 2.0 9.0 0.00 0.00 0.00 65 1015.1
20180720233019 83 170 3.0 10.0 0.00 0.00 0.00 63 1014.9
20180720232021 83 181 2.0 8.0 0.00 0.00 0.00 63 1015.2
20180720231016 83 196 2.0 7.0 0.00 0.00 0.00 63 1015.4
20180720230021 84 205 2.0 7.0 0.00 0.00 0.00 62 1015.6
20180720225021 85 174 0.0 4.0 0.00 0.00 0.00 62 1016.0
20180720224022 84 161 2.0 10.0 0.00 0.00 0.00 64 1016.0
20180720223021 85 200 3.0 7.0 0.00 0.00 0.00 61 1015.9
20180720222021 85 166 3.0 10.0 0.00 0.00 0.00 62 1015.7
20180720221021 85 187 2.0 7.0 0.00 0.00 0.00 60 1015.8
20180720220016 85 195 3.0 7.0 0.00 0.00 0.00 62 1015.9
20180720215021 85 173 3.0 8.0 0.00 0.00 0.00 61 1015.8
20180720214021 85 180 3.0 9.0 0.00 0.00 0.00 61 1016.0
20180720213021 85 208 2.0 7.0 0.00 0.00 0.00 60 1016.2
20180720212021 86 198 4.0 9.0 0.00 0.00 0.00 61 1016.1
20180720211021 85 185 2.0 8.0 0.00 0.00 0.00 64 1016.3
20180720210016 85 175 0.0 9.0 0.00 0.00 0.00 64 1016.3
20180720205021 85 186 4.0 9.0 0.00 0.00 0.00 62 1016.0
20180720204021 85 194 2.0 8.0 0.00 0.00 0.00 62 1016.4
20180720203021 85 196 3.0 9.0 0.00 0.00 0.00 63 1016.4
20180720202021 85 212 3.0 12.0 0.00 0.00 0.00 65 1016.6
20180720201021 84 198 3.0 10.0 0.00 0.00 0.00 64 1016.7
20180720200021 84 198 2.0 8.0 0.00 0.00 0.00 63 1016.7
20180720195016 84 178 3.0 10.0 0.00 0.00 0.00 65 1016.8
20180720194021 84 188 3.0 10.0 0.00 0.00 0.00 63 1016.9
20180720193021 84 188 2.0 7.0 0.00 0.00 0.00 64 1017.3
20180720192021 84 192 1.0 7.0 0.00 0.00 0.00 66 1017.7
20180720191021 84 180 1.0 7.0 0.00 0.00 0.00 64 1018.1
20180720190021 84 174 2.0 7.0 0.00 0.00 0.00 66 1018.2
20180720185016 83 168 1.0 8.0 0.00 0.00 0.00 67 1018.4
20180720184021 83 161 0.0 3.0 0.00 0.00 0.00 68 1018.5
20180720183021 83 160 0.0 6.0 0.00 0.00 0.00 66 1018.6
20180720182021 83 156 2.0 6.0 0.00 0.00 0.00 68 1018.6
20180720181021 83 150 1.0 6.0 0.00 0.00 0.00 66 1018.6
20180720180021 83 164 1.0 7.0 0.00 0.00 0.00 67 1018.9
20180720175021 82 159 0.0 5.0 0.00 0.00 0.00 69 1018.9
20180720174015 83 149 1.0 5.0 0.00 0.00 0.00 66 1018.9
20180720173021 83 148 0.0 6.0 0.00 0.00 0.00 65 1019.0
20180720172021 82 149 0.0 6.0 0.00 0.00 0.00 67 1019.1
20180720171021 81 0.0 7.0 0.00 0.00 0.00 70 1019.3
20180720170021 81 167 1.0 6.0 0.00 0.00 0.00 70 1019.4
20180720165021 81 0.0 4.0 0.00 0.00 0.00 69 1019.3
20180720164016 81 172 0.0 2.0 0.00 0.00 0.00 69 1019.5
20180720163016 81 184 0.0 6.0 0.00 0.00 0.00 71 1019.5
20180720162021 80 205 0.0 8.0 0.00 0.00 0.00 70 1019.6
20180720161021 80 171 1.0 8.0 0.00 0.00 0.00 71 1019.7
20180720160020 80 117 0.0 7.0 0.00 0.00 0.00 70 1019.8
20180720155021 80 117 0.0 4.0 0.00 0.00 0.00 71 1019.9
20180720154021 80 117 0.0 5.0 0.00 0.00 0.00 70 1020.2
20180720153015 80 111 0.0 7.0 0.00 0.00 0.00 71 1020.1
20180720152020 80 0.0 5.0 0.00 0.00 0.00 71 1020.1
20180720151021 79 0.0 0.0 0.00 0.00 0.00 73 1020.2
20180720150021 79 107 0.0 1.0 0.00 0.00 0.00 73 1020.3
20180720145021 79 0.0 0.0 0.00 0.00 0.00 72 1020.3
20180720144020 78 0.0 0.0 0.00 0.00 0.00 72 1020.3
20180720143022 77 0.0 0.0 0.00 0.00 0.00 73 1020.3
20180720142022 77 107 0.0 2.0 0.00 0.00 0.00 71 1020.3
20180720141022 77 0.0 0.0 0.00 0.00 0.00 72 1020.3
20180720140022 77 0.0 0.0 0.00 0.00 0.00 71 1020.4
20180720135022 76 0.0 0.0 0.00 0.00 0.00 69 1020.3
20180720134017 76 0.0 0.0 0.00 0.00 0.00 69 1020.5
20180720133017 75 0.0 0.0 0.00 0.00 0.00 65 1020.3
20180720132025 74 0.0 0.0 0.00 0.00 0.00 68 1020.4
20180720131022 74 0.0 0.0 0.00 0.00 0.00 62 1020.4
20180720130022 74 0.0 0.0 0.00 0.00 0.00 52 1020.2
20180720125022 73 0.0 0.0 0.00 0.00 0.00 40 1020.1
20180720124022 72 0.0 0.0 0.00 0.00 0.00 39 1020.0
20180720123017 71 0.0 0.0 0.00 0.00 0.00 40 1019.8
20180720122022 70 0.0 0.0 0.00 0.00 0.00 40 1019.7
20180720121022 69 0.0 0.0 0.00 0.00 0.00 41 1019.6
20180720120022 67 0.0 0.0 0.00 0.00 0.00 41 1019.4
20180720115022 66 0.0 0.0 0.00 0.00 0.00 42 1019.5
20180720114022 66 0.0 0.0 0.00 0.00 0.00 42 1019.4
20180720113017 65 0.0 0.0 0.00 0.00 0.00 43 1019.4
20180720112017 65 0.0 0.0 0.00 0.00 0.00 43 1019.3
20180720111022 65 0.0 0.0 0.00 0.00 0.00 43 1019.2
20180720110022 65 0.0 0.0 0.00 0.00 0.00 44 1018.9
20180720105022 65 0.0 0.0 0.00 0.00 0.00 44 1018.9
20180720104022 65 0.0 0.0 0.00 0.00 0.00 44 1018.8
20180720103022 65 0.0 0.0 0.00 0.00 0.00 44 1018.7
20180720102017 65 0.0 0.0 0.00 0.00 0.00 45 1019.0
20180720101022 65 0.0 0.0 0.00 0.00 0.00 45 1018.9